Погода в Кампина-Гранди

Бразилия     7°12′25″S   35°55′21″W
темп.,
°C
ветер,
м/с
пор.,
м/с
влажн.,
%
обл.,
%
осадки,
мм/ч
давл.,
гПа
погр.,
м
27 февраля, сб
сб2700:00+21в26893 0.0 1012370
03:00+21вюв239128 0.0 1011209
06:00+21в248972 0.0 1012276
09:00+26в566261 0.0 1013966
12:00+29в665057 0.2 10111310
15:00+29в665252 0.4 10081311
18:00+25в686881 0.1 1009913
21:00+22в588457 0.1 1011544
28 февраля, вс
вс2800:00+21в379020 0.0 1011473
03:00+21в269525 0.0 1009312
06:00+21вюв259530 0.0 1011269
09:00+27вюв565825 0.0 10121122
12:00+29в665076 0.4 10091407
15:00+28в675862 4.4 10071180
18:00+24в597178 2.1 1008783
21:00+22в488560 2.2 1010531
1 марта, пн
пн100:00+21в379349 0.0 1010396
03:00+20вюв259844 0.0 1008240
06:00+20вюв259750 0.0 1009284
09:00+26вюв566345 0.0 1011994
12:00+29вюв665277 0.4 10091351
15:00+28в786066 4.8 10071225
18:00+24в6107636 0.9 1009839
21:00+22вюв6108847 0.9 1011664
2 марта, вт
вт200:00+21вюв389332 0.1 1011488
03:00+20в279529 0.1 1010390
06:00+20вюв269629 0.0 1011357
09:00+26вюв565525 0.0 1012991
12:00+31в56360 0.0 10111755
15:00+29в564914 0.6 10091600
18:00+25в697027 0.3 1011737
21:00+22в598717 0.3 1013525
3 марта, ср
ср300:00+21в379425 0.0 1013414
03:00+20вюв249727 0.0 1012162
06:00+20вюв249737 0.0 1013211
09:00+27в566142 0.0 10141116
12:00+30в574764 0.0 10131750
15:00+30в664857 0.1 10111733
18:00+25в587026 0.1 1012713
21:00+22в588817 0.2 1014505